Hovedside
METAR-TAF:

METAR-TAF

Lufthavner :

Hemavan, Sverige

Hemavan flyplass

breddegrad: 65-48-22N, lengdegrad: 015-04-58E, høyde over havet: 458 m

Gjeldene værobservasjon

Denne rapporten ble laget for 10 minutter siden, klokken 08:20 UTC
Vind 4 kt fra Øst-sørøst, skiftende mellom Øst og Sør-sørøst
Temperatur -16°C
Luftfuktighet 92%
Trykk 1009 hPa
Sikt: 2100 m
lett snø

METAR: ESUT 220820Z AUTO 11004KT 090V150 2100 -SN FEW005/// SCT008/// OVC009/// M16/M17 Q1009

Tid: 09:30 (08:30 UTC)


TAF: fraværende

Værobservasjoner og værvarsel for over 4000 flyplasser (METAR- og TAF-rapporter).

Tilgjengelige stasjoner er representert av de røde og gule prikkene på kartet.

Hold musepekeren over prikken for å se navnet på stasjonen.

Klikk så for å se værobservasjoner og -varsler.

For å forandre kartet kan du klikke på den grønne knappen med svart kryss for å zoome inn, på den grønne knappen med strek for å zoome ut, eller på de grønne pilene for å se tilstøtende kart.


METAR-TAF: